Voltar ao catálogo

CZ-6A DEB

AtivoSSO
NORAD 58430·DEBRIS·🇨🇳 China

Lançado Nov 11, 2022 de Taiyuan Satellite Launch Center

Loading…

Próximas Passagens (próximas 24 horas)

TLE

AtualizadoSource: Space-Track

Época: Sep 14, 2026, 22:58 UTC

1 58430U 22151AHY 26257.95702074  .00003309  00000-0  16538-2 0  9997
2 58430  98.9064 256.3019 0087662 113.1730 247.8708 14.15467859 91601

Acompanhe CZ-6A DEB em tempo real com AllMySat

Download on the App Store